Flag for Germany Weather past 2 weeks in Ludwigshafen, Rhineland-Palatinate, Germany

63 °F

Scattered showers. Partly sunny.

Feels Like: 63 °F
Forecast: 49 / 62 °F
Wind: 8 mph from Southwest

Location: Baden Wurttemberg - Neuostheim

Current Time: Oct 7, 2015 at 10:51:08 AM

Latest Report: Oct 7, 2015 at 10:20 AM

Visibility: N/A

Pressure: 29.89 "Hg

Humidity: 77%

Dew point: 55 °F

Location of LudwigshafenLocation

Historic Weather in Ludwigshafen — Graph


Ludwigshafen temperature yesterday

Maximum temperature yesterday: 70 °F (at 1:50 PM)
Minimum temperature yesterday: 59 °F (at 8:20 AM)
Average temperature yesterday: 64 °F

Past Weeks' High & Low Weather Summary

High70 °F (Oct 2, 3:20 PM)100% (Sep 24, 7:50 AM)30.57 "Hg (Sep 24, 7:50 AM)
Low43 °F (Oct 2, 6:20 AM)34% (Sep 29, 12:50 PM)29.62 "Hg (Sep 22, 4:50 PM)
Average59 °F67%30.14 "Hg
* Reported Sep 22 9:20 AM — Oct 7 9:20 AM, Ludwigshafen, Weather by CustomWeather, © 2015

Note: Actual official high and low records may vary slightly from our data, if they occured in-between our weather recording intervals... More about our weather records


Ludwigshafen weather history for previous 24 hours

Time TempWeatherWind HumidityBarometerVisibility
9:20 AM
Wed, Oct 7
61 °FBroken clouds.7 mph88%29.86 "HgN/A
8:50 AM61 °FBroken clouds.8 mph88%29.86 "HgN/A
8:20 AM59 °FPartly cloudy.7 mph94%29.83 "HgN/A
7:50 AM59 °FPassing clouds.5 mph94%29.83 "HgN/A
7:20 AM61 °FPassing clouds.6 mph88%29.83 "HgN/A
6:50 AM61 °FOvercast.5 mph94%29.83 "HgN/A
6:20 AM61 °FMostly cloudy.5 mph88%29.80 "HgN/A
5:50 AM61 °FPassing clouds.6 mph88%29.80 "HgN/A
5:20 AM61 °FClear.5 mph94%29.80 "Hg10 mi
9:20 PM
Tue, Oct 6
61 °FPassing clouds.3 mph94%29.74 "HgN/A
8:50 PM63 °FPassing clouds.5 mph88%29.74 "HgN/A
8:20 PM63 °FMostly cloudy.7 mph88%29.74 "HgN/A
7:50 PM63 °FPartly sunny.7 mph88%29.74 "HgN/A
7:20 PM63 °FBroken clouds.5 mph94%29.71 "HgN/A
6:50 PM64 °FBroken clouds.7 mph88%29.71 "HgN/A
6:20 PM64 °FBroken clouds.7 mph88%29.71 "HgN/A
5:50 PM64 °FScattered clouds.8 mph94%29.68 "HgN/A
5:20 PM64 °FBroken clouds.7 mph88%29.68 "HgN/A
4:50 PM66 °FLight rain. Partly sunny.7 mph88%29.68 "HgN/A
4:20 PM66 °FLight rain. Scattered clouds.6 mph88%29.68 "HgN/A
3:50 PM66 °FPartly sunny.6 mph88%29.68 "HgN/A
3:20 PM66 °FLight rain. Partly sunny.6 mph88%29.68 "HgN/A
2:50 PM66 °FLight rain. Partly sunny.5 mph94%29.68 "HgN/A
2:20 PM64 °FLight rain. Partly sunny.6 mph94%29.68 "HgN/A
1:50 PM70 °FBroken clouds.5 mph69%29.68 "HgN/A
1:20 PM68 °FPassing clouds.5 mph78%29.68 "HgN/A
12:50 PM66 °FPassing clouds.6 mph78%29.71 "HgN/A
12:20 PM66 °FPassing clouds.6 mph78%29.71 "HgN/A
11:50 AM66 °FPassing clouds.5 mph78%29.71 "HgN/A
11:20 AM64 °FPassing clouds.5 mph83%29.71 "HgN/A
10:50 AM64 °FPassing clouds.6 mph83%29.71 "HgN/A
10:20 AM64 °FPassing clouds.5 mph83%29.71 "HgN/A
Weather by CustomWeather, © 2015

See weather overviewHow to use our weather pages